Reflectivity
-20 -20 -20 -15 -20 -9 -20 -20 -20 -20 -20 -20 -20 -20 -20 -20 -20 -20 -20 -20 -20 -20 -20 -20 -20 -20 -20 -20 19 -10 -20 -20 -20 -20 -20 -20 -20 -20 -20 -20 -20 -20 -20 -20 -20 -20 -20
-20 -20 -20 -20 -20 -20 -20 -20 -10 -20 -20 -20 -20 -20 -20 -20 -20 -20 -20 -20 -20 -20 -20 -20 -20 6 -18 -19 16 -19 -20 -20 -20 -20 -20 -20 -20 -20 -20 -20 -20 -20 -20 -20 -20 -20 -20
-19 -3 6 -20 -20 -20 -20 -20 -20 -20 -20 -20 -20 -20 -20 -20 -20 -20 -20 -20 -20 -20 -20 -20 12 1 17 -20 -19 -20 -20 -20 -20 -20 -20 -20 -20 -20 -20 -20 -20 -20 -20 -20 -20 -20 -20
-12 6 -6 -16 -17 -20 -20 -17 -20 -20 -17 -15 -18 -20 -20 -20 -17 -20 -20 -20 -20 -20 -20 -20 -4 7 19 -20 -20 -20 -20 -20 -20 -20 -20 -20 -20 -20 -20 -20 -20 -20 -20 -20 -20 -20 -20
8 9 9 16 7 -20 -4 9 14 -20 10 2 15 3 2 -12 11 15 14 6 -2 -3 6 -3 4 5 14 -20 -20 -20 -20 -20 -20 -20 -20 -20 -20 -20 -20 -20 -20 -20 -20 -20 -20 -20 -20
-18 -16 2 8 14 10 1 -4 -4 7 9 -18 -9 -17 -20 -20 -20 -11 1 21 15 15 -1 5 17 20 -2 -20 -20 -20 -20 -20 -20 -20 -20 -20 -20 -20 -20 -20 -20 -20 -20 -20 -20 -20 -20
-2 12 3 5 9 -6 -7 -0 4 -12 -20 4 -20 -20 -20 0 -20 -15 13 9 5 -20 18 -20 -20 -20 -20 -20 -20 -20 -20 -20 -20 -20 -20 -20 -20 -20 -20 -20 -20 -20 -20 -20 -20 -20 -20
18 11 20 14 20 -5 -3 -1 3 -20 -20 -20 -20 -20 -4 -1 -20 -11 -4 23 -16 -20 -19 -20 -20 -20 -20 -20 -20 -20 -20 -20 -20 -20 -20 -20 -20 -20 -20 -20 -20 -20 -20 -20 -20 -20 -20
18 14 17 21 20 16 8 -1 6 -11 9 -20 -20 -20 -20 -20 -7 -20 -20 -17 -20 -20 14 -19 -20 -20 -19 -7 -20 -20 -20 -20 -20 -20 -20 -20 -20 -20 -20 -20 -20 -20 -20 -20 -20 -20 -20
19 16 20 14 11 16 16 -9 4 10 10 13 16 10 12 6 -20 -20 -20 -20 -20 -10 23 -6 -20 -19 -20 -3 -4 -20 -20 -20 -20 -20 -20 -20 -20 -20 -20 -20 -20 -20 -20 -20 -20 -20 -20
18 22 19 17 11 6 16 18 15 20 20 19 23 26 15 15 -19 -9 -20 -20 -4 26 30 18 -8 -20 -20 -20 -20 -20 -20 -15 -20 -20 -20 -20 -20 -20 -20 -20 -20 -20 -20 -20 -20 -20 -20
12 10 22 20 16 16 16 20 20 24 15 24 18 25 27 18 19 -4 -18 -15 26 35 29 11 -20 -11 -20 -20 -20 -20 -20 -20 -20 -14 -15 -20 -20 -20 -20 -20 -20 -20 -20 -20 -20 -20 15
18 10 3 7 17 7 15 22 18 18 26 21 30 29 27 29 23 23 24 30 39 28 25 4 -20 -20 -20 -20 -20 -20 -20 -19 -15 -2 3 -13 -20 -20 -20 -20 -20 -20 -10 6 10 6 -0
8 12 14 9 3 11 7 6 21 12 26 27 25 28 29 26 29 23 20 25 31 36 -7 -11 -20 -20 -20 -20 -18 -20 -20 -17 -20 -20 -20 -20 -20 -20 -20 -20 -20 -20 -20 -11 -1 -11 -20
-0 4 3 4 16 11 1 7 12 -11 21 28 30 30 33 22 23 31 34 28 26 17 29 -3 -20 1 5 -20 11 -18 -19 -20 -20 -9 -15 -17 -20 -20 -20 -20 -20 -20 6 -20 -4 12 -7
11 10 -1 -10 -1 -8 -10 18 -5 17 9 32 29 24 16 7 21 33 32 28 23 17 26 27 23 -16 -8 -20 -10 26 12 -14 13 7 1 -3 11 -20 -20 -20 -20 -20 -20 -14 17 18 16
-20 -20 -15 -10 3 -20 -20 5 -2 1 17 10 26 26 -13 -1 29 38 28 18 12 6 8 29 28 37 24 38 24 -19 17 -20 22 8 2 5 8 17 -18 -20 -20 -20 -12 -18 8 10 9
-20 -20 -13 -20 -20 10 13 -20 -19 18 22 13 -0 -4 -20 8 25 30 21 19 0 14 18 29 33 32 30 25 28 37 32 27 8 23 27 44 35 24 6 -20 -20 -20 -20 -20 -19 -17 0
13 14 -16 -12 8 -15 -20 -1 -20 -10 25 -17 2 -19 -20 20 24 8 21 2 13 16 26 30 32 30 29 21 16 -4 11 18 31 32 37 33 36 20 37 33 -4 -14 -5 11 15 -20 10
-12 -9 -19 -17 5 9 5 -18 -13 -20 23 18 21 -2 -12 14 10 4 -19 -8 3 -2 -8 16 26 30 27 15 21 16 -6 -11 12 20 11 25 36 18 15 11 30 33 40 34 25 19 0
-18 -16 -12 -12 -15 -17 7 11 11 -20 -20 22 13 -9 1 8 10 -9 15 10 -20 -20 -2 -20 -14 -9 -18 -17 -3 13 10 -8 -18 -2 11 18 25 20 14 7 -3 17 23 7 37 34 34
-17 -19 -15 -20 -20 -20 0 13 15 -8 24 31 -1 -7 -13 21 11 -1 24 25 22 9 -16 -20 -20 -20 -20 -20 -20 -20 -20 -6 -5 -2 9 -6 7 15 12 28 1 9 9 -3 -13 -8 -4
3 14 13 -9 -5 -20 -20 -4 20 -5 24 11 36 7 6 23 -15 12 -20 -20 -13 2 -16 -20 -20 -20 -20 -20 -19 -20 -4 -14 -19 -13 4 6 1 12 15 -0 31 24 11 -13 3 9 12
14 11 14 19 10 5 -7 20 23 18 24 -20 16 28 10 -19 21 -6 -20 -13 13 3 -20 -20 -20 -20 -20 -20 -20 -15 -20 -20 -11 -20 -9 -3 10 13 7 10 18 24 7 27 22 9 9
16 14 18 18 15 13 16 23 25 -2 22 -0 -14 21 27 -8 4 -17 -20 -20 -20 -20 -20 -20 -20 -20 -20 -20 8 -20 -20 -17 -17 -20 -6 4 11 14 19 11 -0 -7 9 12 12 -7 13
15 20 18 21 19 12 -20 32 19 19 18 23 -2 2 31 27 8 -20 -20 -20 -19 -20 1 -20 -20 -20 -20 -15 -0 18 2 -20 -5 24 -11 10 9 15 0 21 15 -20 -19 0 9 -20 -20
22 22 35 20 -10 -8 -10 28 6 3 -19 27 32 -20 10 1 2 -20 -20 -20 -20 -16 -20 -20 -20 13 4 14 10 7 21 12 17 14 -12 24 12 12 -3 18 14 -4 -8 -16 -14 -20 -20
-19 -0 -0 -20 -20 19 17 12 -5 17 21 21 23 -20 26 18 -20 -20 -20 -20 -20 -20 -20 -20 -20 -5 -20 -16 12 -13 8 7 18 5 10 15 22 23 18 15 13 19 -16 -6 -4 -20 -20
-20 -20 -20 17 16 19 21 -20 -20 3 15 26 29 29 32 -17 -20 -20 -20 -20 -20 -20 -20 -20 -20 -20 0 -20 -20 -20 -20 -5 -10 4 2 16 16 10 18 28 33 38 31 15 5 -3 -2
Wind_Speed
17 18 17 17 16 18 17 18 15 15 16 16 14 14 15 15 14 12 13 12 11 10 8 7 6 6 5 3 13 11 10 8 5 3 8 6 6 4 8 5 3 8 10 10 10 11 8
18 18 18 17 19 19 18 18 16 16 16 16 16 15 15 16 15 14 14 12 12 10 8 8 8 3 4 14 8 8 6 7 10 12 10 8 9 9 9 9 9 5 8 12 11 13 9
18 18 19 18 19 18 18 17 17 18 17 18 17 17 17 17 15 15 14 13 12 10 8 9 9 5 11 21 12 15 16 22 13 14 12 11 13 13 6 5 5 5 10 16 14 13 12
17 18 19 18 18 18 18 17 17 18 18 19 18 17 16 16 16 16 14 13 11 12 9 10 10 7 13 9 19 23 19 19 19 18 17 12 8 11 14 5 4 7 9 13 5 5 6
14 15 16 16 16 17 16 16 16 17 18 17 17 17 16 15 16 15 14 13 12 13 12 7 6 6 10 7 11 14 19 13 6 3 11 2 10 6 5 9 7 9 17 17 13 12 14
5 6 8 7 6 5 5 7 10 12 13 14 16 16 14 13 14 13 12 9 6 7 7 7 4 5 5 21 6 5 7 10 4 8 4 5 5 6 6 10 16 15 12 10 14 4 8
6 7 7 7 9 9 9 8 7 8 9 10 12 14 13 13 12 10 3 2 3 5 8 14 11 10 2 9 5 9 6 9 3 6 11 7 10 14 24 28 19 15 15 17 8 4 12
5 6 8 8 8 9 10 11 11 8 7 7 6 2 0 4 5 8 5 5 5 3 13 20 24 27 24 10 13 13 8 9 9 18 12 8 29 21 20 19 22 22 23 24 17 11 12
5 5 6 9 11 11 11 10 9 12 9 6 3 1 4 5 6 3 3 7 2 3 9 12 17 19 19 23 29 30 21 21 24 25 21 25 44 10 17 21 24 25 27 21 22 9 14
8 8 10 10 12 13 12 11 8 7 9 9 7 6 7 6 2 4 4 4 4 4 6 14 8 9 13 11 11 17 30 21 13 24 20 22 31 27 18 28 22 26 19 20 16 9 11
7 7 8 9 9 12 12 12 11 8 5 5 9 7 10 10 2 3 1 2 6 2 8 5 5 2 8 16 2 3 2 24 25 15 9 18 11 19 29 34 21 20 14 18 17 16 12
6 5 6 7 8 8 11 12 12 11 8 4 3 4 8 4 2 3 2 3 3 5 10 7 5 7 9 15 3 2 4 8 3 16 17 23 10 11 20 16 20 7 6 6 5 8 8
13 11 11 10 9 7 7 9 14 15 10 9 8 6 4 2 0 3 2 3 6 9 4 8 8 8 10 10 9 6 8 9 11 9 17 14 27 17 8 12 15 17 10 4 8 10 12
13 12 12 13 13 12 10 7 5 7 10 12 11 10 5 4 5 4 3 6 14 6 15 2 2 5 10 10 9 14 9 11 16 11 3 14 9 22 19 23 10 28 23 11 12 10 9
16 16 15 14 15 14 13 12 9 8 7 10 10 1 4 3 4 3 4 7 4 3 5 6 10 14 8 4 8 12 17 15 13 18 12 9 11 8 9 20 18 11 20 24 6 3 1
16 16 15 15 14 14 14 15 14 8 6 7 1 2 4 6 9 4 6 10 5 2 7 6 4 6 15 16 9 10 11 3 16 15 22 8 11 8 5 11 16 16 11 8 8 8 9
18 18 18 17 16 15 15 14 13 11 7 2 2 3 4 2 6 4 6 5 7 5 2 5 4 5 4 8 10 12 9 2 2 7 12 12 10 5 10 16 17 13 14 6 6 8 10
19 18 18 18 19 17 15 15 13 11 7 2 2 3 2 4 7 3 5 5 4 5 4 0 3 3 3 5 5 4 5 8 16 19 8 9 3 11 27 5 4 19 23 22 10 12 8
20 20 20 20 19 18 17 16 14 13 10 3 3 3 2 3 5 7 3 3 4 4 3 3 3 2 2 5 4 4 4 6 15 6 6 8 3 3 7 1 4 4 7 14 4 3 12
20 20 19 19 20 21 19 18 16 14 13 4 2 3 2 5 3 7 6 5 4 3 4 4 1 1 2 2 1 5 8 6 10 11 16 13 8 12 13 9 2 6 5 7 5 8 11
23 22 22 20 19 20 20 20 19 16 14 5 4 5 3 3 5 7 3 5 6 7 4 5 4 7 5 3 2 5 6 10 9 7 3 2 7 4 14 20 14 14 15 12 10 7 7
25 24 22 23 21 20 21 23 22 20 16 5 5 4 3 1 1 4 4 2 9 5 3 3 5 5 7 5 6 7 5 5 8 4 8 3 7 13 24 24 19 17 19 18 17 7 3
27 27 25 25 24 23 23 22 23 21 16 5 3 2 1 2 4 5 3 3 1 2 6 5 3 2 3 11 11 14 11 15 14 8 5 6 4 6 15 11 11 16 25 19 8 12 11
28 27 27 25 25 23 22 20 22 22 19 3 4 3 4 3 3 4 6 5 9 10 5 2 3 4 2 3 10 15 18 21 20 23 16 11 10 5 8 8 10 6 4 18 20 15 14
26 26 25 24 22 21 14 18 20 22 22 5 3 3 2 3 4 4 6 4 2 4 8 11 9 6 2 5 5 6 5 6 14 23 19 19 9 6 6 10 6 5 4 8 13 13 14
24 23 22 20 19 16 12 18 18 19 20 8 4 4 2 4 6 3 4 4 2 2 2 3 3 4 3 3 3 5 7 7 5 5 7 13 14 7 4 5 5 7 8 4 6 3 4
16 14 15 14 12 13 17 20 19 21 23 9 3 7 3 3 2 4 3 4 4 2 2 2 2 2 2 2 2 4 3 4 5 7 6 6 8 15 9 5 4 4 14 9 8 2 8
6 2 4 7 9 8 15 15 12 19 18 10 3 7 5 2 2 6 5 5 4 2 2 1 1 0 2 1 1 3 3 5 5 6 8 6 8 1 5 7 3 10 5 1 5 5 3
7 4 3 5 10 9 11 10 11 14 14 10 3 5 3 3 2 2 4 3 4 4 3 2 1 1 1 0 1 2 2 2 3 5 6 3 4 5 4 4 4 5 5 8 9 8 5
Wind_Direction
244 244 244 241 242 244 241 246 244 245 244 249 249 247 253 256 256 258 260 260 263 266 266 271 282 304 346 295 250 278 306 327 319 269 279 268 260 226 237 214 232 238 260 266 255 255 243
244 244 242 243 243 244 243 244 244 241 243 246 246 245 249 252 253 252 256 259 259 257 251 255 257 265 195 255 259 264 278 290 262 279 258 251 253 222 261 238 231 251 256 267 273 269 263
245 247 246 244 245 247 244 243 244 247 249 247 247 246 245 248 252 250 249 254 257 254 249 248 251 248 220 243 269 265 271 276 278 242 265 257 243 235 221 237 229 246 277 279 270 258 256
247 247 247 247 245 247 248 246 247 248 249 251 250 249 249 249 248 250 250 251 254 260 242 236 241 252 261 240 247 259 257 267 256 242 236 246 221 241 239 302 282 272 269 272 272 176 236
261 255 256 255 254 252 252 252 253 255 255 254 255 255 253 249 249 249 248 247 246 251 233 217 213 213 267 255 239 250 233 238 301 157 190 213 165 204 159 222 261 223 259 252 279 243 253
26 21 23 1 347 344 331 304 281 268 265 263 261 255 250 247 247 248 247 249 254 261 232 230 215 244 192 238 208 228 153 185 151 131 115 211 203 178 174 190 229 234 242 238 244 253 223
17 10 14 12 7 1 343 312 309 301 293 278 266 262 257 251 245 233 238 257 240 235 212 199 194 236 135 226 293 209 182 152 188 215 234 204 223 208 197 204 233 256 238 245 235 232 302
9 354 346 349 345 351 346 353 341 313 309 307 310 308 247 204 215 208 163 230 226 98 283 223 242 245 253 268 265 222 189 231 213 242 229 232 245 234 238 226 225 233 241 247 264 252 247
319 319 329 332 330 330 333 334 336 337 307 301 289 192 148 138 128 139 217 201 106 83 265 241 217 236 234 213 242 241 232 236 236 247 224 237 253 234 220 218 215 228 233 243 252 262 255
6 14 356 348 341 332 318 317 316 311 338 307 250 200 172 161 186 164 212 226 179 103 256 269 201 241 194 199 261 235 228 218 216 243 235 245 264 246 237 235 208 237 214 239 238 231 255
17 9 358 355 0 5 340 310 296 278 306 326 357 256 195 197 135 207 92 136 126 101 257 256 183 144 177 172 337 121 209 195 221 201 177 226 252 216 222 233 204 239 196 208 214 231 257
306 314 325 333 342 343 3 359 353 273 247 251 302 338 338 209 178 266 11 156 168 209 234 265 171 172 172 213 259 124 134 166 210 236 237 249 279 248 236 233 214 198 188 180 163 209 226
290 285 286 282 287 307 331 324 339 0 299 240 241 251 278 340 334 357 201 226 230 214 130 229 210 180 209 202 224 212 170 181 184 175 223 243 246 241 245 225 207 196 197 210 220 204 228
303 296 287 288 286 279 277 273 305 328 336 355 9 321 236 233 181 51 344 219 242 222 211 120 125 160 205 191 221 203 186 214 220 219 241 211 246 201 210 214 185 200 198 214 222 220 240
294 295 298 294 284 283 285 284 278 287 292 324 327 303 264 242 213 130 230 242 235 196 312 332 298 261 261 271 246 207 213 222 217 200 217 201 242 172 198 203 188 185 209 224 286 91 196
293 286 287 289 293 292 287 277 279 260 266 296 280 303 237 178 173 187 223 231 246 293 354 5 261 329 247 231 218 220 210 205 239 206 217 240 263 197 174 190 224 210 177 193 211 211 226
287 287 293 296 283 283 288 287 277 275 256 241 226 247 238 177 173 208 223 212 239 221 96 233 230 276 266 319 306 260 247 254 333 329 314 229 219 224 153 202 185 189 221 209 218 199 234
285 282 281 276 276 282 273 275 281 268 246 137 124 235 320 165 214 225 222 194 179 215 186 166 300 260 250 308 269 255 299 333 14 343 302 343 305 242 228 153 260 224 206 197 198 191 224
283 276 275 274 272 271 270 265 268 260 208 121 234 259 271 267 221 220 205 201 206 173 174 198 236 214 52 306 317 308 333 312 310 343 341 352 320 330 299 172 360 269 230 225 155 75 200
281 281 278 273 270 268 262 260 251 252 224 124 176 262 221 225 242 221 203 219 219 203 203 203 215 163 225 251 164 303 307 300 335 289 289 270 213 219 243 260 285 281 309 297 252 211 213
283 280 274 271 273 271 266 262 249 234 222 134 180 225 228 233 223 222 184 180 182 186 215 215 220 172 158 244 294 225 279 297 302 316 286 332 291 255 247 249 247 239 243 204 215 227 215
274 271 267 266 269 271 271 261 237 227 208 227 162 197 204 256 195 205 212 188 187 198 153 236 219 200 179 208 207 284 281 255 261 302 327 301 276 302 291 250 231 231 225 219 218 208 179
275 270 264 260 259 263 272 263 225 215 195 205 229 125 212 141 180 206 215 162 137 177 234 226 192 127 235 245 263 275 273 272 266 280 275 268 259 279 282 325 249 227 218 189 181 192 203
272 270 265 257 253 254 266 255 214 210 199 146 179 151 190 181 204 183 177 176 215 223 236 218 214 204 227 323 302 272 254 250 247 253 233 246 259 263 272 287 231 341 321 214 211 219 208
273 267 264 252 248 247 270 238 211 207 199 182 156 165 156 173 183 184 185 200 286 275 264 254 242 231 83 323 264 277 275 247 231 233 236 214 220 247 243 242 269 270 176 195 189 236 209
277 263 259 242 234 232 244 251 199 198 194 187 168 131 159 137 212 150 137 181 204 236 247 246 264 160 128 224 265 262 266 254 274 226 207 218 210 236 229 263 240 25 5 317 195 254 346
285 272 254 242 219 238 230 207 202 197 192 193 142 136 111 144 227 142 164 171 174 174 261 300 279 143 173 280 253 269 288 344 298 314 330 258 203 217 215 228 254 354 321 307 199 47 341
8 105 163 193 222 233 190 193 205 204 205 175 141 136 135 156 176 195 172 154 131 191 200 251 57 239 187 282 302 340 309 357 314 330 340 340 303 267 214 212 201 348 338 114 348 329 34
17 356 278 188 207 202 183 190 197 185 183 124 118 178 175 103 190 235 234 234 202 183 164 194 169 214 204 152 225 282 263 240 302 336 329 359 357 318 357 14 317 356 9 18 358 331 5